Weather History for KWRL - February, 2014

Change the Weather History Date:

Friday, February 14, 2014

  Actual Average Record
Temperature  
Mean Temperature 26 °F 23 °F  
Max Temperature 41 °F 37 °F 58 °F (1981)
Min Temperature 10 °F 10 °F -11 °F (2001)
Degree Days  
Heating Degree Days 39 42  
Month to date heating degree days 849 617  
Since 1 July heating degree days 5758 5465  
Cooling Degree Days 0 0  
Month to date cooling degree days 0 0  
Year to date cooling degree days 0 0  
Moisture  
Dew Point 15 °F    
Average Humidity 62    
Maximum Humidity 84    
Minimum Humidity 40    
Precipitation  
Precipitation 0.00 in 0.01 in 0.50 in (1967)
Month to date precipitation 0.05 0.09  
Year to date precipitation 0.30 0.32  
Sea Level Pressure  
Sea Level Pressure 29.97 in    
Wind  
Wind Speed 6 mph (SSE)    
Max Wind Speed 17 mph    
Max Gust Speed 20 mph    
Visibility 10 miles    
Events      
T = Trace of Precipitation, MM = Missing Value Source: NWS Daily Summary

Daily Weather History Graph

Daily Weather History Graph

Search for Another Location

Airport or City:

Trip Planner

Search our weather history database for the weather conditions in past years. The results will help you decide how hot, cold, wet, or windy it might be!

Date:

Astronomy

Feb. 14, 2014 Rise Set
Actual Time 7:12 AM MST 5:40 PM MST
Civil Twilight 6:42 AM MST 6:10 PM MST
Nautical Twilight 6:08 AM MST 6:43 PM MST
Astronomical Twilight 5:35 AM MST 7:17 PM MST
Moon 5:48 PM MST (2/14) 6:39 AM MST (2/14)
Length of Visible Light 11h 27m
Length of Day
10h 28m
Full, 100% of the Moon is Illuminated
Feb 14
Full
Feb 14
Full
Feb 22
Last Quarter
Mar 1
New
Mar 8
First Quarter

Hourly Weather History & Observations

Time (MST) Temp. Windchill Dew Point Humidity Pressure Visibility Wind Dir Wind Speed Gust Speed Precip Events Conditions
12:53 AM 28.9 °F - 12.9 °F 51% 30.01 in 10.0 mi Calm Calm - N/A   Clear
1:53 AM 21.0 °F 11.4 °F 8.1 °F 57% 30.06 in 10.0 mi NE 8.1 mph - N/A   Clear
2:53 AM 14.0 °F 6.5 °F 6.1 °F 71% 30.09 in 10.0 mi South 4.6 mph - N/A   Clear
3:53 AM 10.9 °F 2.9 °F 5.0 °F 77% 30.10 in 10.0 mi SSE 4.6 mph - N/A   Clear
4:53 AM 25.0 °F 14.2 °F 12.9 °F 60% 30.08 in 10.0 mi SSE 11.5 mph - N/A   Clear
5:53 AM 16.0 °F - 9.0 °F 74% 30.12 in 10.0 mi Calm Calm - N/A   Clear
6:53 AM 19.9 °F 5.7 °F 12.0 °F 71% 30.11 in 10.0 mi South 16.1 mph - N/A   Clear
7:53 AM 21.9 °F 17.2 °F 12.0 °F 66% 30.11 in 10.0 mi WSW 3.5 mph - N/A   Clear
8:53 AM 19.9 °F 14.9 °F 12.0 °F 71% 30.10 in 10.0 mi NNW 3.5 mph - N/A   Clear
9:53 AM 21.9 °F 15.7 °F 15.1 °F 75% 30.10 in 10.0 mi WSW 4.6 mph - N/A   Clear
10:53 AM 27.0 °F - 18.0 °F 69% 30.10 in 10.0 mi Calm Calm - N/A   Overcast
11:53 AM 30.0 °F 24.1 °F 19.0 °F 64% 30.03 in 10.0 mi NE 5.8 mph - N/A   Mostly Cloudy
12:53 PM 33.1 °F 28.7 °F 21.0 °F 61% 29.94 in 10.0 mi ESE 4.6 mph - N/A   Mostly Cloudy
1:53 PM 39.0 °F 30.3 °F 18.0 °F 43% 29.89 in 10.0 mi ESE 16.1 mph - N/A   Clear
2:53 PM 39.0 °F 30.6 °F 18.0 °F 43% 29.86 in 10.0 mi ESE 15.0 mph - N/A   Clear
3:53 PM 39.0 °F 31.8 °F 21.9 °F 50% 29.86 in 10.0 mi East 11.5 mph - N/A   Clear
4:53 PM 39.9 °F 35.8 °F 23.0 °F 51% 29.83 in 10.0 mi NW 5.8 mph - N/A   Clear
5:53 PM 33.1 °F - 23.0 °F 66% 29.87 in 10.0 mi Calm Calm - N/A   Partly Cloudy
6:53 PM 27.0 °F - 21.0 °F 78% 29.86 in 10.0 mi Calm Calm - N/A   Clear
7:53 PM 23.0 °F 17.0 °F 17.1 °F 78% 29.85 in 10.0 mi South 4.6 mph - N/A   Clear
8:53 PM 21.9 °F 13.4 °F 16.0 °F 78% 29.87 in 10.0 mi South 6.9 mph - N/A   Clear
9:53 PM 21.9 °F 15.7 °F 17.1 °F 82% 29.85 in 10.0 mi SSW 4.6 mph - N/A   Clear
10:53 PM 19.0 °F - 15.1 °F 85% 29.85 in 10.0 mi Calm Calm - N/A   Partly Cloudy
11:53 PM 23.0 °F 18.4 °F 17.1 °F 78% 29.85 in 10.0 mi East 3.5 mph - N/A   Overcast